Flag for U.S.A. Weather past 2 weeks in Providence, Rhode Island, U.S.A.

Now
36 °F

Clear.


Feels Like: 28 °F
Forecast: 30 / 46 °F
Wind: 13 mph from North

Location: Green State Airport

Current Time: Apr 1, 2015 at 2:20:10 AM

Latest Report: Apr 1, 2015 at 1:51 AM


Visibility: 10 mi

Pressure: 29.77 "Hg

Humidity: 70%

Dew point: 27 °F

Location of ProvidenceLocation

Historic Weather in Providence — Graph

°F

Providence temperature yesterday

Maximum temperature yesterday: 49 °F (at 3:51 PM)
Minimum temperature yesterday: 33 °F (at 12:51 AM)
Average temperature yesterday: 41 °F

Past Weeks' High & Low Weather Summary

 TemperatureHumidityPressure
High57 °F (Mar 26, 5:55 PM)100% (Mar 26, 7:51 AM)30.42 "Hg (Mar 26, 7:51 AM)
Low17 °F (Mar 23, 5:51 AM)17% (Mar 19, 2:51 PM)29.41 "Hg (Mar 17, 3:51 PM)
Average34 °F60%29.99 "Hg
* Reported Mar 17 12:51 AM — Apr 1 12:51 AM, Providence, Weather by CustomWeather, © 2015

Note: Actual official high and low records may vary slightly from our data, if they occured in-between our weather recording intervals... More about our weather records

Advertising

Providence weather history for previous 24 hours

 ConditionsComfort  
Time TempWeatherWind HumidityBarometerVisibility
12:51 AM
Wed, Apr 1
36 °FClear.6 mph79%29.76 "Hg10 mi
11:51 PM
Tue, Mar 31
37 °FPassing clouds.5 mph82%29.75 "Hg10 mi
10:51 PM38 °FMostly cloudy.5 mph79%29.77 "Hg10 mi
9:51 PM38 °FOvercast.6 mph83%29.76 "Hg10 mi
8:51 PM39 °FLight rain. Overcast.9 mph76%29.77 "Hg10 mi
7:51 PM41 °FLight rain. Overcast.8 mph65%29.77 "Hg10 mi
6:51 PM45 °FOvercast.12 mph44%29.75 "Hg10 mi
5:51 PM46 °FOvercast.10 mph42%29.74 "Hg10 mi
4:51 PM48 °FMostly cloudy.10 mph36%29.73 "Hg10 mi
3:51 PM49 °FBroken clouds.13 mph36%29.71 "Hg10 mi
2:51 PM48 °FBroken clouds.15 mph36%29.71 "Hg10 mi
1:51 PM47 °FBroken clouds.16 mph39%29.73 "Hg10 mi
12:51 PM47 °FPassing clouds.10 mph41%29.76 "Hg10 mi
11:51 AM46 °FScattered clouds.12 mph42%29.79 "Hg10 mi
10:51 AM46 °FScattered clouds.14 mph40%29.79 "Hg10 mi
9:51 AM45 °FPassing clouds.16 mph44%29.80 "Hg10 mi
8:51 AM42 °FPassing clouds.15 mph55%29.80 "Hg10 mi
7:51 AM38 °FSunny.7 mph68%29.80 "Hg10 mi
6:51 AM35 °FPassing clouds.9 mph75%29.78 "Hg10 mi
5:51 AM35 °FPassing clouds.10 mph75%29.75 "Hg10 mi
4:51 AM35 °FClear.7 mph78%29.74 "Hg10 mi
3:51 AM36 °FClear.8 mph75%29.74 "Hg10 mi
2:51 AM35 °FClear.5 mph72%29.74 "Hg10 mi
Weather by CustomWeather, © 2015

See weather overviewHow to use our weather pages